Location: Austin
(30.3000°N, 97.7500°W)
Time: 10:44:46
(UTC-05:00)

NOSS 2-1 (D) - Pass Details

Date: 01 August 2024
Orbit: 379 x 1701 km, 63.3° (Epoch: 24 April)

Event Time Altitude Azimuth Distance (km) Brightness Sun altitude
Rises 21:25:30 0° 186° (S) 3,132 6.9 -12.8°
Reaches altitude 10° 21:28:27 10° 174° (S) 1,987 5.8 -13.3°
Maximum altitude 21:32:02 25° 118° (ESE) 1,058 4.1 -14.0°
Drops below altitude 10° 21:34:56 10° 60° (ENE) 1,581 5.4 -14.5°
Sets 21:37:01 0° 46° (NE) 2,356 6.4 -14.9°
